Presure
125 140 149 138 161 155 132 151 123 145 142 111 119 135 118 150 122 135 155 168 170 139 199 126 129 184 236 260 340 341 325 279 266 256 324 314 322 327 322 339 367 278 233 220 235 199 200
158 153 152 142 138 149 154 150 156 151 134 148 131 113 135 112 127 118 130 138 176 128 100 160 200 159 143 244 307 288 145 190 221 265 335 327 331 340 347 346 356 369 273 247 243 161 203
127 137 141 170 150 147 142 156 150 131 123 140 148 145 150 130 119 117 142 154 163 186 139 207 182 118 158 231 256 310 151 326 305 296 309 322 326 320 350 335 336 357 276 262 244 244 206
136 130 144 144 142 164 161 157 136 145 125 159 123 120 108 144 133 143 155 181 113 138 149 206 155 130 204 213 245 246 194 190 309 310 292 295 312 316 312 321 329 339 363 276 263 234 199
124 150 133 129 150 129 138 147 125 148 139 162 125 126 151 109 139 159 131 159 153 123 130 125 131 154 163 203 225 251 218 156 304 300 300 302 292 304 310 312 321 328 345 303 259 231 223
126 128 126 153 130 122 134 141 144 138 157 134 141 143 137 144 136 145 189 127 142 186 162 172 181 130 167 137 218 232 253 246 312 304 298 302 318 308 304 312 307 315 340 353 265 242 228
143 141 179 125 123 160 175 122 126 120 144 134 129 151 193 134 144 161 143 134 170 152 173 159 125 137 122 186 204 214 238 239 224 314 297 299 317 312 321 315 318 315 318 353 363 78 248
132 124 141 137 171 128 136 122 127 126 173 210 195 141 131 155 185 131 145 163 137 118 155 147 158 123 135 171 145 208 225 239 157 352 193 300 298 312 311 308 318 319 316 338 363 272 262
180 120 132 152 137 162 169 165 122 134 185 126 151 199 143 163 137 126 138 146 128 192 167 166 131 148 144 159 200 161 222 234 240 228 251 314 284 300 301 314 317 326 314 326 344 332 225
169 173 127 137 127 199 170 193 209 179 132 209 150 135 141 144 145 194 136 209 139 172 159 203 137 198 147 195 155 190 214 220 229 225 233 318 311 283 301 301 309 325 325 318 325 342 269
175 116 172 173 143 203 151 195 201 138 125 124 129 167 152 216 216 148 140 154 155 127 201 150 141 199 202 155 161 192 134 219 220 225 244 126 276 309 295 293 303 315 318 327 353 349 386
179 183 193 181 194 158 168 145 217 167 208 175 185 175 168 127 173 167 169 151 157 205 195 131 164 130 180 168 193 127 199 189 220 227 231 235 246 320 312 303 310 315 315 328 343 350 360
188 173 183 181 186 184 204 189 187 200 157 212 157 182 152 162 161 166 210 152 152 151 159 138 140 145 145 166 158 184 154 181 186 138 219 232 214 259 327 304 315 323 317 320 318 323 330
179 161 173 184 204 195 189 176 201 171 211 204 183 167 202 199 152 201 126 145 160 194 144 142 161 138 180 146 186 200 197 169 151 134 218 227 235 220 185 321 315 303 319 321 322 324 323
193 186 187 193 207 210 203 195 198 203 174 208 151 204 150 140 194 174 160 138 198 167 135 196 137 195 141 147 140 138 164 117 164 188 194 219 220 237 225 256 295 326 308 315 318 320 325
180 194 195 195 196 210 212 197 199 197 193 165 168 146 202 201 207 158 184 208 157 133 144 148 152 173 185 183 190 137 169 121 146 131 186 217 213 224 231 205 254 264 313 320 310 317 320
195 191 172 193 211 201 216 217 180 188 190 204 209 199 205 195 201 206 205 205 136 196 195 148 205 209 140 209 195 138 149 185 144 165 197 193 203 208 219 212 221 148 257 290 336 323 321
169 199 213 211 203 194 186 198 201 193 199 216 207 202 211 221 210 175 199 200 191 207 126 205 158 199 140 205 210 205 196 184 200 153 147 194 206 210 203 218 216 231 235 248 272 321 330
203 218 165 179 201 205 216 166 208 211 214 222 236 223 204 214 185 197 126 193 189 182 198 198 183 174 200 206 172 198 209 198 142 199 182 185 193 201 214 207 145 219 229 228 244 260 288
215 214 209 209 215 226 199 201 215 210 207 184 214 203 189 199 186 204 191 180 200 198 197 195 162 179 130 183 124 179 207 198 191 178 161 142 192 184 184 211 170 193 215 222 223 196 243
193 190 208 218 211 219 214 230 192 230 186 201 195 201 208 184 203 168 174 195 183 191 212 179 206 199 192 119 182 200 132 203 209 129 203 139 192 190 171 191 208 196 177 220 211 218 227
129 154 228 235 193 194 199 183 195 194 222 219 190 209 186 210 196 186 191 204 198 186 194 213 183 195 186 212 167 198 183 200 170 206 207 204 197 192 168 190 201 208 212 206 176 217 219
207 213 215 213 208 202 210 190 208 207 211 206 213 187 220 194 174 174 213 214 189 198 197 196 166 184 190 212 183 177 202 202 192 197 180 204 197 200 183 185 188 184 201 208 189 195 204
202 204 207 207 205 206 151 201 206 185 202 178 211 211 199 197 196 202 180 203 185 168 184 198 207 199 211 205 221 202 194 190 200 183 200 205 202 190 197 162 180 192 192 197 199 201 203
222 210 136 217 218 214 179 201 225 172 202 214 224 220 226 231 226 215 227 227 218 221 216 211 197 181 216 217 196 209 186 205 187 199 207 184 209 199 193 197 189 191 185 199 182 193 186
216 216 217 209 133 232 239 242 246 247 233 251 250 254 254 242 232 224 225 231 227 181 217 223 229 228 191 205 187 189 196 189 197 198 200 200 206 202 194 125 182 194 205 176 176 188 181
243 188 251 207 256 259 241 220 255 249 253 264 265 260 249 260 252 255 223 213 241 232 216 207 210 215 218 184 224 211 237 212 207 206 205 206 196 180 192 195 197 189 175 197 179 182 188
246 253 236 269 283 296 290 231 275 292 276 299 318 306 303 310 290 260 171 204 249 241 235 231 229 225 230 231 193 222 225 225 198 213 201 204 195 206 201 193 184 191 201 203 196 189 171
267 281 267 250 281 279 332 343 324 277 265 280 151 337 351 318 329 322 280 268 256 242 242 223 236 229 232 224 217 214 227 195 189 201 205 208 203 196 200 197 199 198 191 190 195 195 194
Wind_Speed
16 14 13 16 12 12 15 13 17 13 14 14 19 13 18 14 21 17 26 28 34 32 48 22 27 53 78 88 57 36 34 29 25 23 11 10 11 20 29 35 32 104 82 82 86 78 80
19 18 18 18 18 16 16 17 16 15 21 13 22 13 17 15 29 11 28 26 33 33 14 39 52 39 39 84 72 35 28 35 25 22 13 12 13 7 17 22 28 37 104 92 88 59 83
20 18 19 23 21 20 20 20 19 24 25 20 17 18 19 28 16 20 20 29 31 39 33 53 45 25 37 79 87 54 27 37 33 33 32 20 11 5 1 16 22 29 106 102 90 93 86
22 23 23 23 22 28 24 25 25 23 21 22 26 26 11 21 27 24 28 38 21 26 33 54 37 28 62 72 85 78 33 33 40 35 29 30 17 9 3 4 17 19 31 108 99 90 87
26 27 26 27 30 29 27 26 29 23 27 29 29 32 22 17 20 29 31 29 27 29 34 29 29 36 42 62 78 87 54 29 41 37 33 24 22 15 11 5 6 20 25 79 96 88 92
32 31 31 36 30 32 29 27 27 29 31 32 29 28 34 26 29 29 44 33 29 43 37 40 44 24 41 32 76 80 84 69 42 37 32 27 20 13 12 11 10 13 11 32 105 92 87
38 37 33 36 36 31 33 36 35 34 31 34 35 31 47 33 27 32 27 32 38 32 43 35 27 38 23 44 60 70 77 69 23 34 36 30 26 17 11 10 14 17 18 19 35 19 95
41 38 41 38 33 39 41 39 38 38 37 45 45 33 35 34 47 36 30 38 31 24 35 28 36 25 34 41 33 62 73 75 24 31 22 33 26 22 12 8 8 14 18 17 20 106 100
46 40 42 41 41 41 38 39 43 42 41 41 43 48 41 43 33 38 34 36 33 50 38 42 27 38 32 35 50 34 70 72 73 57 27 33 36 24 19 15 5 6 15 18 20 57 90
51 50 46 43 44 48 41 40 41 41 42 44 48 42 44 39 39 52 36 53 32 44 35 54 30 50 33 47 33 42 68 66 68 60 61 30 30 32 25 18 15 3 11 18 22 30 104
57 43 44 47 55 53 47 48 46 47 44 46 44 56 46 48 48 37 40 34 37 36 51 32 32 49 51 33 40 46 24 63 61 63 70 17 25 30 28 28 20 10 4 8 13 23 16
62 64 56 57 51 48 57 47 47 45 49 53 43 45 44 46 45 44 44 41 43 51 51 35 39 28 42 38 44 18 47 44 58 63 64 62 59 39 29 27 21 16 9 8 4 4 16
71 56 60 58 54 54 52 54 55 50 63 52 47 52 51 50 48 45 53 42 37 38 39 34 33 34 32 36 35 39 30 36 41 24 55 60 43 64 40 36 28 18 14 8 1 4 11
71 52 62 69 63 62 56 58 55 62 53 56 49 52 56 55 48 51 44 39 46 49 33 33 37 35 41 30 38 46 37 32 30 22 56 57 59 45 23 47 33 29 20 12 5 3 10
74 76 73 72 69 60 62 61 59 60 59 61 57 59 51 47 56 54 48 42 54 48 41 51 40 47 35 34 30 30 36 22 29 32 36 49 48 55 47 57 55 34 28 22 14 7 7
69 77 77 77 72 67 63 64 63 61 66 55 64 63 61 59 59 67 57 53 47 44 44 41 36 46 45 43 46 32 34 26 24 20 28 43 43 47 48 34 54 54 42 27 20 12 8
79 79 64 78 76 74 71 68 60 62 67 63 65 60 64 58 60 57 53 52 51 50 51 41 53 49 38 48 42 34 37 36 24 20 30 28 32 35 41 32 38 12 48 48 26 16 9
61 84 79 74 76 70 68 69 68 66 70 72 64 62 63 63 57 61 56 55 52 54 43 51 45 50 45 46 47 43 41 37 37 35 27 25 36 33 26 36 30 40 42 44 48 32 18
85 85 63 68 77 79 80 70 77 71 70 66 69 60 60 59 56 59 51 60 56 55 54 54 51 44 49 48 43 45 42 40 33 35 30 22 27 30 32 27 19 31 36 36 42 42 42
83 81 83 84 84 82 75 76 78 74 68 68 64 63 64 63 62 66 60 57 64 61 60 54 53 55 51 49 46 46 43 38 38 34 39 33 20 24 19 26 16 12 25 28 29 10 38
79 79 83 88 85 83 81 86 76 74 75 68 67 64 63 64 65 64 61 63 66 68 57 54 57 56 54 44 45 47 52 43 39 38 37 34 25 22 21 20 22 13 20 24 16 23 27
55 69 84 84 83 83 81 81 81 79 80 74 78 72 72 67 71 71 70 61 70 71 68 57 58 57 56 58 49 51 40 46 42 37 37 35 32 27 35 19 23 21 19 13 22 20 21
86 88 90 88 86 84 88 80 88 85 85 84 83 78 82 70 68 70 74 72 71 75 70 68 57 64 65 61 51 48 51 49 41 37 38 36 32 34 25 23 24 24 18 16 16 8 5
92 93 95 95 95 94 59 91 96 80 92 74 97 92 81 78 74 78 77 79 71 68 72 74 69 65 61 64 57 60 51 48 52 42 41 40 35 31 34 38 29 20 19 18 13 11 9
102 93 56 103 103 103 83 95 108 83 94 101 109 106 106 102 98 91 94 92 89 88 84 80 74 62 71 62 62 61 54 55 51 53 54 46 42 36 37 33 33 26 25 25 29 17 22
102 104 104 99 66 115 118 120 120 120 118 120 118 119 118 106 98 95 94 100 94 81 87 90 84 83 76 69 67 64 65 59 56 60 58 48 46 43 37 35 35 35 32 38 39 27 32
107 84 111 89 114 115 114 104 116 113 116 118 117 117 116 111 103 103 90 88 100 98 87 87 83 83 81 75 71 61 60 65 62 63 63 59 47 35 41 40 44 45 37 37 42 41 31
108 106 107 102 100 105 105 114 105 102 112 108 107 114 118 114 106 110 79 87 97 97 96 97 96 90 93 89 76 71 66 64 56 65 61 64 53 59 53 43 43 44 45 44 42 40 48
99 100 94 101 99 95 100 99 100 105 104 93 56 101 103 117 100 108 109 109 106 99 98 97 99 98 96 92 81 79 66 72 65 64 68 64 65 59 58 54 55 55 45 47 45 44 43
Wind_Direction
251 249 254 236 273 255 244 255 261 252 249 305 289 295 306 320 305 307 328 331 330 308 346 327 320 343 357 1 7 4 359 347 343 326 323 312 281 239 225 229 224 219 218 218 219 216 216
276 269 266 250 245 254 262 265 269 265 256 271 264 301 274 323 289 311 312 292 332 318 291 328 348 335 323 1 6 358 314 333 340 347 3 350 341 262 241 227 226 218 218 218 215 217 214
250 262 261 286 269 260 253 277 269 262 267 261 275 277 289 274 309 288 297 322 320 341 308 354 340 323 334 1 6 6 315 12 12 16 10 12 14 337 47 198 213 212 214 217 213 216 211
257 251 267 269 264 282 279 284 258 267 262 286 275 285 303 281 280 293 317 326 317 305 322 351 325 328 358 359 5 7 335 342 16 18 18 9 5 19 4 292 211 215 223 214 215 211 214
252 274 257 256 278 256 267 274 262 271 259 291 273 274 283 298 301 303 288 309 318 313 311 323 323 334 346 358 4 8 2 329 7 9 12 10 7 353 333 236 229 225 224 211 212 212 209
252 264 251 275 252 259 256 263 267 261 275 260 267 269 287 273 280 290 319 295 301 329 323 334 343 319 342 326 2 7 10 13 1 3 4 5 2 339 319 270 239 232 223 209 212 210 211
271 268 286 264 256 269 275 260 259 266 270 260 269 282 307 274 278 305 286 290 312 315 322 324 321 318 320 349 3 4 9 12 340 356 1 8 14 1 322 296 253 246 228 227 226 275 211
261 252 268 258 288 256 267 259 259 265 280 294 297 271 272 292 304 285 289 311 292 296 316 312 323 315 318 344 334 4 7 13 337 12 340 5 14 15 5 337 290 256 240 234 228 210 210
296 253 259 271 264 275 287 276 262 265 288 267 276 299 276 292 271 285 281 299 295 320 317 321 309 318 318 334 357 345 5 10 15 15 358 7 20 15 18 18 350 239 239 235 228 213 204
291 294 261 264 256 303 280 302 303 281 260 296 279 266 277 271 274 304 274 311 285 307 310 326 298 336 315 347 338 351 4 7 13 13 19 12 3 19 14 12 10 328 228 234 226 218 212
295 263 288 292 271 301 267 297 299 265 270 267 273 282 280 303 305 278 283 291 291 295 320 302 297 333 339 322 334 347 320 5 10 16 20 305 8 359 9 13 360 354 300 281 259 234 240
290 293 290 295 291 280 275 286 296 277 294 281 287 285 282 274 293 285 289 287 296 313 312 293 310 295 326 318 344 312 358 358 7 12 16 20 23 25 22 9 10 357 358 11 11 221 233
290 286 278 293 292 287 288 282 289 291 275 291 278 287 280 282 285 286 306 287 284 288 299 283 296 298 299 321 319 339 324 343 356 319 12 19 13 28 22 22 22 23 8 32 46 221 220
287 271 288 291 292 292 288 287 292 276 295 288 282 279 290 291 281 294 273 276 292 302 281 277 294 286 312 298 329 334 350 331 319 314 8 14 19 18 2 28 20 28 25 24 26 267 237
283 284 288 287 293 283 284 287 290 289 273 285 277 289 277 273 290 283 283 267 297 292 275 305 284 310 287 295 289 293 314 284 326 345 356 11 19 22 25 31 32 23 23 26 24 20 321
286 283 284 287 290 281 281 281 283 286 283 274 281 278 282 286 288 284 290 291 278 265 281 288 283 295 304 306 314 285 312 279 297 282 338 9 14 21 25 19 33 38 27 20 22 13 342
281 284 278 285 283 283 281 279 276 282 282 281 279 281 276 280 284 287 290 289 264 291 287 278 300 302 266 310 308 280 292 317 285 314 348 349 4 13 25 21 28 287 39 37 26 16 9
277 282 281 280 280 280 280 281 280 280 280 279 275 277 273 277 276 281 287 290 290 282 264 292 274 299 274 306 307 310 311 309 322 293 279 342 354 5 10 24 22 37 38 39 45 31 23
276 275 276 278 279 279 277 271 280 275 276 279 280 268 274 267 281 284 268 288 287 282 288 289 288 277 296 297 287 303 306 308 274 316 317 314 338 350 5 13 279 28 38 42 42 42 41
275 277 278 279 280 278 278 278 276 276 272 276 273 276 277 274 279 275 278 281 281 283 283 286 274 284 270 289 274 289 299 303 299 291 285 273 321 323 312 359 307 336 31 39 48 14 44
274 275 276 279 279 279 279 280 277 275 274 271 269 271 270 274 273 277 276 273 278 278 279 282 277 283 281 272 290 294 270 297 298 269 302 266 302 309 293 319 356 340 271 32 34 48 54
273 277 278 278 275 273 274 275 275 272 276 275 270 270 271 275 268 273 273 276 267 276 277 275 276 279 282 276 279 287 287 293 282 292 294 294 299 294 280 303 333 344 357 4 264 43 42
276 277 278 279 278 278 280 276 279 275 277 272 276 271 277 264 274 272 280 276 274 268 269 274 275 280 280 273 276 282 281 286 282 289 281 286 288 294 270 280 301 287 332 346 284 288 27
280 281 279 279 279 279 270 279 280 277 277 275 277 275 273 271 265 271 270 271 268 272 272 271 274 274 269 269 268 271 273 279 280 278 282 279 279 274 283 271 269 288 293 306 307 311 320
274 274 261 277 276 275 272 275 275 278 275 274 272 273 273 273 272 272 273 272 271 270 269 267 268 264 267 265 268 263 276 268 275 279 277 276 275 274 277 280 278 270 264 296 272 279 260
276 277 278 278 259 278 277 275 274 273 273 274 273 273 271 269 269 268 269 270 269 267 269 272 271 269 265 259 271 274 268 272 270 270 274 272 273 270 270 251 263 277 283 263 268 270 266
277 269 278 277 277 276 275 274 274 273 273 271 269 267 269 268 268 265 264 262 264 265 264 263 264 265 263 266 265 260 260 256 262 260 263 269 265 260 270 273 275 271 263 272 264 262 265
279 278 278 279 282 283 280 274 274 273 272 272 271 269 267 265 260 262 263 263 259 259 259 260 262 264 265 265 256 260 256 251 257 255 261 261 268 269 268 267 263 271 273 273 267 261 265
288 289 283 275 287 283 288 285 279 270 270 275 273 268 267 265 261 259 257 258 260 259 255 257 256 258 257 260 259 257 253 256 259 257 256 257 261 267 271 269 270 271 268 269 271 271 271